QPF
0.04 0.04 0.05 0.05 0.06 0.07 0.08 0.08 0.07 0.05 0.05 0.05 0.03 0.03 0.02 0.02 0.03 0.03 0.03 0.03 0.05 0.06 0.07 0.08 0.05 0.03 0.02 0.03 0.03 0.03 0.03 0.03 0.02 0.03 0.03 0.03 0.04 0.06
0.02 0.02 0.03 0.04 0.06 0.07 0.08 0.09 0.08 0.06 0.05 0.04 0.02 0.01 0.01 0.02 0.02 0.03 0.02 0.03 0.05 0.06 0.06 0.06 0.06 0.05 0.04 0.03 0.03 0.03 0.03 0.03 0.02 0.01 0.02 0.02 0.03 0.04
0.02 0.03 0.03 0.04 0.06 0.07 0.07 0.07 0.07 0.05 0.05 0.03 0.01 0.01 0.01 0.02 0.02 0.02 0.02 0.02 0.02 0.04 0.05 0.05 0.04 0.04 0.04 0.04 0.04 0.03 0.03 0.03 0.03 0.02 0.02 0.03 0.03 0.04
0.02 0.02 0.03 0.05 0.06 0.07 0.08 0.07 0.06 0.05 0.03 0.01 0.01 0.01 0.01 0.01 0.01 0.02 0.01 0.01 0.01 0.03 0.04 0.05 0.05 0.04 0.04 0.04 0.05 0.04 0.04 0.04 0.04 0.03 0.03 0.04 0.04 0.04
0.02 0.03 0.04 0.04 0.05 0.06 0.08 0.07 0.04 0.03 0.02 0.01 0.01 0.01 0.01 0.02 0.02 0.02 0.02 0.02 0.01 0.02 0.02 0.03 0.04 0.05 0.04 0.04 0.05 0.05 0.06 0.06 0.06 0.05 0.04 0.05 0.05 0.05
0.02 0.02 0.02 0.02 0.02 0.02 0.03 0.03 0.03 0.02 0.02 0.01 0.01 0.01 0.01 0.01 0.01 0.01 0.01 0.01 0.01 0.01 0.02 0.02 0.03 0.04 0.04 0.03 0.03 0.04 0.06 0.06 0.07 0.07 0.07 0.05 0.04 0.04
0.01 0.01 0.01 0.01 0.01 0.02 0.02 0.03 0.03 0.02 0.02 0.02 0.01 0.01 0.01 0.01 0.01 0.02 0.01 0.01 0.01 0.02 0.02 0.02 0.02 0.02 0.03 0.04 0.04 0.03 0.03 0.04 0.04 0.05 0.05 0.05 0.04 0.04
0.02 0.01 0.01 0.01 0.02 0.02 0.02 0.03 0.03 0.02 0.02 0.02 0.01 0.01 0.01 0.01 0.01 0.01 0.01 0.01 0.01 0.01 0.02 0.02 0.02 0.02 0.03 0.05 0.06 0.04 0.02 0.02 0.02 0.02 0.02 0.03 0.03 0.03
0.03 0.03 0.03 0.02 0.02 0.02 0.02 0.02 0.02 0.02 0.02 0.02 0.01 0.01 0.01 0.01 0.01 0.01 0.01 0.01 0.01 0.02 0.02 0.02 0.02 0.02 0.02 0.03 0.04 0.04 0.03 0.03 0.03 0.02 0.02 0.01 0.02 0.02
0.02 0.02 0.03 0.04 0.04 0.03 0.02 0.02 0.01 0.01 0.01 0.01 0.01 0.01 0.01 0.01 0.01 0.02 0.02 0.01 0.02 0.02 0.02 0.02 0.02 0.02 0.02 0.02 0.02 0.02 0.02 0.03 0.02 0.02 0.02 0.01 0.01 0.02
0.02 0.03 0.02 0.02 0.03 0.03 0.02 0.02 0.01 0.01 0.01 0.01 0.01 0.01 0.00 0.01 0.01 0.02 0.01 0.02 0.01 0.02 0.02 0.02 0.02 0.02 0.02 0.02 0.02 0.02 0.02 0.02 0.01 0.01 0.01 0.01 0.01 0.02
0.03 0.03 0.03 0.03 0.02 0.02 0.01 0.01 0.01 0.01 0.01 0.01 0.01 0.01 0.01 0.01 0.01 0.02 0.01 0.02 0.02 0.02 0.02 0.02 0.02 0.03 0.03 0.03 0.03 0.03 0.02 0.02 0.02 0.02 0.02 0.01 0.01 0.01
0.03 0.03 0.03 0.02 0.02 0.01 0.01 0.01 0.01 0.01 0.01 0.00 0.00 0.00 0.00 0.00 0.01 0.01 0.02 0.02 0.02 0.02 0.03 0.03 0.02 0.03 0.03 0.03 0.02 0.02 0.01 0.02 0.02 0.02 0.02 0.02 0.02 0.02
0.02 0.02 0.02 0.02 0.01 0.01 0.01 0.00 0.01 0.01 0.00 0.00 0.01 0.01 0.01 0.01 0.02 0.02 0.02 0.03 0.03 0.04 0.04 0.04 0.03 0.04 0.04 0.03 0.02 0.02 0.02 0.02 0.02 0.03 0.03 0.03 0.03 0.03
0.02 0.02 0.03 0.02 0.01 0.01 0.00 0.01 0.01 0.00 0.01 0.01 0.01 0.01 0.02 0.02 0.02 0.02 0.02 0.03 0.03 0.04 0.05 0.05 0.04 0.04 0.05 0.04 0.03 0.03 0.02 0.03 0.03 0.04 0.04 0.04 0.03 0.03
0.01 0.02 0.02 0.02 0.02 0.01 0.01 0.01 0.01 0.01 0.01 0.01 0.01 0.01 0.02 0.02 0.01 0.02 0.02 0.03 0.03 0.04 0.06 0.07 0.06 0.06 0.06 0.05 0.04 0.04 0.04 0.04 0.04 0.05 0.04 0.04 0.03 0.03
0.02 0.01 0.01 0.02 0.02 0.03 0.03 0.03 0.03 0.03 0.03 0.02 0.02 0.02 0.02 0.02 0.02 0.03 0.02 0.01 0.02 0.02 0.03 0.06 0.07 0.07 0.08 0.08 0.07 0.06 0.06 0.06 0.06 0.06 0.05 0.04 0.03 0.02
0.03 0.03 0.03 0.04 0.04 0.04 0.04 0.03 0.03 0.02 0.02 0.03 0.03 0.03 0.03 0.03 0.03 0.03 0.02 0.02 0.02 0.02 0.03 0.04 0.04 0.05 0.06 0.07 0.07 0.08 0.08 0.06 0.06 0.06 0.06 0.05 0.04 0.03
0.04 0.04 0.04 0.03 0.03 0.03 0.04 0.04 0.03 0.02 0.02 0.03 0.04 0.03 0.04 0.04 0.04 0.05 0.05 0.05 0.05 0.05 0.05 0.05 0.04 0.05 0.05 0.05 0.05 0.05 0.04 0.05 0.08 0.08 0.07 0.05 0.04 0.04
0.03 0.03 0.03 0.03 0.03 0.03 0.03 0.03 0.03 0.03 0.02 0.02 0.02 0.02 0.03 0.04 0.05 0.06 0.07 0.07 0.07 0.06 0.05 0.04 0.04 0.05 0.06 0.07 0.08 0.09 0.10 0.10 0.09 0.07 0.06 0.05 0.05 0.05
0.02 0.02 0.03 0.04 0.04 0.03 0.03 0.02 0.02 0.03 0.04 0.03 0.02 0.01 0.01 0.02 0.03 0.05 0.06 0.07 0.07 0.06 0.05 0.04 0.04 0.05 0.05 0.05 0.06 0.07 0.09 0.09 0.07 0.06 0.06 0.05 0.04 0.02
0.02 0.02 0.03 0.04 0.04 0.04 0.03 0.02 0.01 0.02 0.03 0.05 0.05 0.04 0.03 0.03 0.04 0.05 0.05 0.06 0.07 0.06 0.05 0.03 0.03 0.03 0.04 0.04 0.05 0.06 0.07 0.07 0.07 0.07 0.05 0.04 0.03 0.02
0.05 0.05 0.05 0.05 0.04 0.03 0.03 0.02 0.02 0.01 0.02 0.03 0.04 0.05 0.05 0.05 0.04 0.05 0.05 0.05 0.06 0.06 0.05 0.04 0.04 0.03 0.03 0.04 0.05 0.05 0.05 0.05 0.05 0.04 0.03 0.03 0.02 0.02
MSLP
1015.23 1015.34 1015.49 1015.64 1015.75 1015.80 1015.76 1015.63 1015.40 1015.10 1014.76 1014.39 1014.04 1013.71 1013.43 1013.21 1013.06 1012.99 1012.99 1013.05 1013.18 1013.35 1013.55 1013.76 1013.96 1014.13 1014.26 1014.34 1014.39 1014.40 1014.39 1014.37 1014.35 1014.33 1014.31 1014.26 1014.19 1014.10
1014.47 1014.56 1014.70 1014.85 1014.99 1015.09 1015.12 1015.08 1014.96 1014.76 1014.52 1014.23 1013.93 1013.63 1013.35 1013.10 1012.90 1012.75 1012.67 1012.67 1012.73 1012.86 1013.03 1013.24 1013.45 1013.66 1013.83 1013.97 1014.07 1014.14 1014.18 1014.21 1014.23 1014.25 1014.26 1014.26 1014.24 1014.20
1013.73 1013.82 1013.95 1014.10 1014.26 1014.40 1014.50 1014.54 1014.52 1014.43 1014.29 1014.09 1013.86 1013.61 1013.34 1013.07 1012.83 1012.62 1012.47 1012.38 1012.37 1012.43 1012.55 1012.72 1012.92 1013.12 1013.32 1013.49 1013.63 1013.75 1013.85 1013.93 1014.00 1014.07 1014.13 1014.18 1014.21 1014.21
1013.09 1013.16 1013.29 1013.45 1013.62 1013.79 1013.94 1014.05 1014.11 1014.12 1014.07 1013.96 1013.81 1013.60 1013.36 1013.10 1012.83 1012.58 1012.37 1012.21 1012.11 1012.09 1012.14 1012.24 1012.39 1012.56 1012.75 1012.93 1013.09 1013.25 1013.39 1013.53 1013.66 1013.79 1013.91 1014.01 1014.09 1014.15
1012.56 1012.64 1012.76 1012.92 1013.10 1013.28 1013.46 1013.62 1013.74 1013.81 1013.84 1013.80 1013.71 1013.56 1013.36 1013.11 1012.84 1012.57 1012.31 1012.09 1011.92 1011.82 1011.78 1011.81 1011.89 1012.01 1012.15 1012.31 1012.48 1012.65 1012.83 1013.01 1013.20 1013.40 1013.58 1013.75 1013.89 1014.00
1012.16 1012.24 1012.35 1012.50 1012.67 1012.86 1013.04 1013.21 1013.36 1013.47 1013.54 1013.56 1013.52 1013.41 1013.25 1013.03 1012.77 1012.49 1012.22 1011.95 1011.73 1011.56 1011.45 1011.39 1011.39 1011.44 1011.52 1011.64 1011.78 1011.95 1012.15 1012.37 1012.62 1012.87 1013.12 1013.36 1013.57 1013.75
1011.85 1011.93 1012.04 1012.17 1012.32 1012.48 1012.64 1012.80 1012.94 1013.06 1013.14 1013.18 1013.17 1013.10 1012.97 1012.79 1012.56 1012.29 1012.02 1011.74 1011.49 1011.27 1011.09 1010.96 1010.88 1010.84 1010.85 1010.90 1011.01 1011.15 1011.35 1011.60 1011.88 1012.19 1012.51 1012.83 1013.11 1013.36
1011.60 1011.68 1011.78 1011.90 1012.01 1012.14 1012.26 1012.38 1012.48 1012.58 1012.64 1012.68 1012.67 1012.62 1012.51 1012.36 1012.16 1011.93 1011.67 1011.40 1011.14 1010.89 1010.67 1010.47 1010.32 1010.20 1010.13 1010.11 1010.16 1010.26 1010.44 1010.69 1011.00 1011.35 1011.73 1012.11 1012.48 1012.81
1011.40 1011.48 1011.57 1011.66 1011.74 1011.82 1011.89 1011.95 1012.01 1012.05 1012.08 1012.08 1012.06 1012.00 1011.91 1011.78 1011.61 1011.41 1011.18 1010.94 1010.68 1010.42 1010.17 1009.93 1009.71 1009.52 1009.38 1009.28 1009.26 1009.31 1009.45 1009.68 1009.99 1010.37 1010.79 1011.23 1011.67 1012.07
1011.23 1011.32 1011.41 1011.48 1011.53 1011.56 1011.58 1011.58 1011.58 1011.56 1011.53 1011.49 1011.44 1011.36 1011.27 1011.15 1011.00 1010.82 1010.62 1010.40 1010.16 1009.90 1009.63 1009.36 1009.10 1008.85 1008.63 1008.47 1008.37 1008.36 1008.45 1008.64 1008.93 1009.30 1009.74 1010.22 1010.70 1011.17
1011.10 1011.22 1011.31 1011.37 1011.40 1011.40 1011.38 1011.33 1011.27 1011.20 1011.12 1011.03 1010.93 1010.83 1010.72 1010.59 1010.44 1010.28 1010.10 1009.89 1009.66 1009.41 1009.13 1008.84 1008.54 1008.24 1007.97 1007.74 1007.57 1007.49 1007.52 1007.65 1007.90 1008.24 1008.67 1009.15 1009.65 1010.15
1011.04 1011.18 1011.28 1011.36 1011.39 1011.38 1011.33 1011.26 1011.16 1011.05 1010.92 1010.79 1010.66 1010.52 1010.39 1010.24 1010.08 1009.91 1009.73 1009.52 1009.29 1009.03 1008.75 1008.44 1008.11 1007.78 1007.46 1007.17 1006.94 1006.80 1006.75 1006.82 1007.00 1007.28 1007.66 1008.10 1008.59 1009.08
1011.04 1011.21 1011.35 1011.45 1011.50 1011.50 1011.46 1011.38 1011.27 1011.15 1011.00 1010.85 1010.69 1010.53 1010.36 1010.19 1010.01 1009.82 1009.61 1009.38 1009.14 1008.86 1008.56 1008.23 1007.88 1007.52 1007.16 1006.83 1006.55 1006.34 1006.22 1006.21 1006.30 1006.50 1006.80 1007.17 1007.60 1008.05
1011.11 1011.32 1011.50 1011.63 1011.72 1011.75 1011.73 1011.68 1011.59 1011.48 1011.35 1011.20 1011.03 1010.86 1010.67 1010.47 1010.26 1010.03 1009.78 1009.52 1009.24 1008.94 1008.60 1008.25 1007.88 1007.49 1007.11 1006.74 1006.42 1006.15 1005.95 1005.85 1005.85 1005.94 1006.13 1006.40 1006.73 1007.10
1011.24 1011.48 1011.70 1011.87 1012.00 1012.08 1012.11 1012.10 1012.06 1011.99 1011.89 1011.77 1011.62 1011.45 1011.25 1011.04 1010.79 1010.52 1010.24 1009.93 1009.60 1009.25 1008.88 1008.50 1008.10 1007.69 1007.29 1006.89 1006.52 1006.19 1005.92 1005.73 1005.62 1005.59 1005.65 1005.79 1006.00 1006.25
1011.39 1011.67 1011.92 1012.13 1012.30 1012.42 1012.51 1012.56 1012.58 1012.57 1012.53 1012.46 1012.35 1012.20 1012.02 1011.79 1011.52 1011.22 1010.88 1010.52 1010.14 1009.74 1009.33 1008.91 1008.49 1008.06 1007.63 1007.20 1006.79 1006.41 1006.07 1005.78 1005.55 1005.40 1005.32 1005.31 1005.37 1005.49
1011.57 1011.86 1012.13 1012.36 1012.57 1012.74 1012.88 1012.99 1013.07 1013.13 1013.16 1013.15 1013.09 1012.98 1012.82 1012.60 1012.32 1011.98 1011.61 1011.20 1010.77 1010.32 1009.87 1009.41 1008.95 1008.50 1008.04 1007.59 1007.14 1006.71 1006.30 1005.92 1005.58 1005.29 1005.06 1004.89 1004.80 1004.78
1011.76 1012.05 1012.32 1012.57 1012.79 1012.99 1013.16 1013.32 1013.47 1013.59 1013.68 1013.73 1013.73 1013.67 1013.53 1013.32 1013.04 1012.69 1012.28 1011.84 1011.36 1010.87 1010.37 1009.88 1009.39 1008.91 1008.43 1007.95 1007.47 1006.99 1006.51 1006.04 1005.59 1005.18 1004.81 1004.49 1004.25 1004.09
1011.96 1012.24 1012.50 1012.74 1012.96 1013.17 1013.37 1013.56 1013.74 1013.90 1014.04 1014.15 1014.19 1014.17 1014.07 1013.88 1013.60 1013.24 1012.81 1012.33 1011.82 1011.29 1010.76 1010.23 1009.72 1009.22 1008.72 1008.22 1007.70 1007.18 1006.64 1006.09 1005.55 1005.02 1004.52 1004.07 1003.68 1003.39
1012.17 1012.44 1012.68 1012.90 1013.11 1013.31 1013.50 1013.69 1013.89 1014.07 1014.24 1014.38 1014.45 1014.46 1014.38 1014.20 1013.93 1013.56 1013.12 1012.62 1012.09 1011.53 1010.98 1010.43 1009.90 1009.37 1008.85 1008.33 1007.79 1007.23 1006.64 1006.03 1005.41 1004.78 1004.17 1003.61 1003.10 1002.69
1012.38 1012.63 1012.86 1013.05 1013.23 1013.40 1013.58 1013.75 1013.94 1014.12 1014.29 1014.43 1014.52 1014.53 1014.46 1014.29 1014.02 1013.66 1013.21 1012.71 1012.16 1011.59 1011.01 1010.45 1009.90 1009.36 1008.82 1008.28 1007.72 1007.13 1006.50 1005.85 1005.16 1004.46 1003.77 1003.12 1002.52 1002.01
1012.56 1012.79 1013.00 1013.16 1013.31 1013.45 1013.59 1013.74 1013.90 1014.06 1014.21 1014.34 1014.42 1014.43 1014.36 1014.19 1013.92 1013.56 1013.12 1012.60 1012.05 1011.47 1010.88 1010.31 1009.74 1009.18 1008.63 1008.06 1007.48 1006.86 1006.21 1005.52 1004.80 1004.05 1003.31 1002.60 1001.94 1001.36
1012.64 1012.86 1013.04 1013.18 1013.30 1013.41 1013.52 1013.63 1013.75 1013.88 1014.01 1014.11 1014.17 1014.17 1014.10 1013.93 1013.67 1013.31 1012.87 1012.36 1011.81 1011.22 1010.62 1010.02 1009.43 1008.85 1008.27 1007.67 1007.06 1006.42 1005.74 1005.03 1004.29 1003.53 1002.77 1002.03 1001.35 1000.74
Thickness
5729 5726 5724 5723 5722 5721 5719 5716 5712 5709 5712 5716 5718 5720 5720 5721 5721 5721 5721 5721 5721 5722 5721 5721 5721 5720 5719 5718 5717 5716 5716 5714 5714 5713 5712 5711 5710 5710
5725 5723 5720 5719 5718 5716 5715 5713 5711 5708 5706 5710 5711 5713 5714 5715 5716 5715 5715 5715 5715 5715 5715 5715 5715 5714 5714 5713 5712 5711 5710 5710 5709 5707 5707 5706 5706 5706
5720 5718 5716 5715 5713 5711 5710 5708 5707 5705 5702 5705 5706 5707 5707 5708 5709 5709 5709 5709 5709 5709 5709 5709 5708 5708 5708 5707 5707 5706 5705 5704 5703 5702 5702 5701 5701 5701
5715 5712 5711 5709 5707 5706 5704 5703 5702 5701 5698 5697 5699 5699 5700 5701 5701 5702 5702 5702 5702 5703 5703 5703 5702 5702 5702 5701 5701 5700 5700 5699 5698 5697 5696 5696 5696 5696
5710 5707 5705 5703 5701 5700 5698 5697 5696 5696 5694 5692 5693 5693 5693 5694 5694 5694 5695 5694 5695 5696 5696 5695 5695 5695 5695 5695 5694 5694 5693 5693 5692 5691 5690 5690 5690 5690
5704 5702 5701 5698 5696 5695 5693 5692 5691 5689 5688 5686 5686 5686 5686 5686 5686 5685 5685 5686 5686 5688 5688 5688 5688 5688 5688 5688 5687 5687 5686 5685 5684 5684 5684 5684 5683 5683
5698 5697 5695 5694 5692 5690 5689 5687 5685 5683 5681 5680 5680 5679 5679 5678 5678 5677 5676 5677 5678 5679 5679 5680 5680 5680 5680 5680 5680 5680 5679 5678 5677 5677 5677 5677 5677 5677
5692 5691 5689 5688 5687 5686 5684 5683 5681 5678 5676 5674 5673 5672 5673 5672 5671 5670 5668 5668 5669 5671 5670 5671 5672 5672 5672 5673 5673 5672 5672 5671 5670 5670 5670 5671 5671 5671
5686 5685 5684 5683 5681 5679 5678 5677 5675 5674 5672 5669 5667 5667 5667 5666 5664 5662 5661 5661 5661 5663 5661 5663 5664 5664 5665 5665 5665 5664 5664 5664 5663 5662 5662 5663 5663 5664
5680 5678 5676 5674 5673 5671 5670 5669 5668 5667 5666 5665 5663 5663 5662 5661 5658 5657 5655 5655 5655 5655 5654 5654 5656 5656 5658 5658 5658 5658 5657 5656 5656 5655 5655 5655 5655 5655
5674 5671 5669 5668 5666 5664 5662 5661 5660 5660 5660 5659 5658 5657 5656 5655 5653 5651 5649 5647 5648 5649 5647 5646 5648 5648 5649 5651 5651 5650 5650 5649 5648 5648 5647 5647 5646 5646
5666 5664 5662 5660 5658 5656 5655 5653 5652 5653 5652 5652 5651 5650 5649 5648 5647 5645 5644 5641 5641 5642 5642 5639 5640 5638 5640 5643 5642 5642 5641 5641 5641 5640 5639 5638 5638 5637
5658 5657 5656 5654 5652 5650 5648 5647 5646 5645 5644 5643 5643 5642 5642 5642 5641 5640 5638 5637 5635 5635 5635 5632 5632 5630 5630 5632 5633 5633 5633 5633 5633 5632 5631 5630 5630 5629
5651 5650 5650 5648 5647 5644 5642 5641 5639 5638 5637 5636 5636 5635 5635 5634 5634 5633 5632 5632 5631 5630 5629 5626 5625 5624 5623 5623 5624 5626 5625 5624 5624 5624 5623 5622 5621 5620
5645 5644 5642 5641 5639 5638 5636 5635 5633 5632 5631 5629 5629 5629 5628 5627 5626 5626 5625 5625 5624 5624 5623 5621 5620 5619 5617 5617 5617 5618 5617 5617 5616 5616 5615 5614 5613 5612
5637 5636 5634 5633 5632 5631 5630 5628 5627 5625 5624 5623 5622 5621 5620 5620 5619 5618 5618 5617 5617 5617 5616 5615 5614 5613 5611 5611 5610 5610 5610 5609 5609 5608 5607 5606 5605 5605
5629 5628 5627 5625 5624 5623 5622 5621 5620 5618 5617 5616 5615 5614 5613 5613 5612 5611 5610 5609 5609 5609 5609 5608 5606 5605 5605 5604 5604 5604 5603 5602 5602 5600 5599 5599 5598 5597
5620 5620 5619 5617 5617 5616 5615 5615 5614 5612 5611 5610 5609 5608 5607 5606 5605 5604 5603 5602 5602 5602 5602 5601 5600 5599 5598 5598 5596 5596 5595 5595 5594 5592 5591 5591 5591 5590
5612 5612 5611 5609 5609 5608 5608 5608 5608 5607 5605 5604 5603 5602 5601 5600 5599 5598 5597 5596 5595 5595 5594 5593 5593 5593 5592 5592 5591 5588 5588 5587 5586 5585 5584 5583 5584 5584
5603 5603 5602 5601 5601 5600 5600 5600 5600 5599 5598 5597 5596 5595 5594 5593 5592 5592 5591 5590 5589 5588 5588 5587 5586 5586 5585 5584 5582 5581 5580 5580 5580 5578 5577 5576 5576 5576
5596 5595 5594 5593 5593 5593 5592 5592 5592 5591 5591 5590 5590 5589 5588 5587 5586 5585 5584 5582 5582 5582 5582 5581 5580 5578 5577 5576 5575 5575 5573 5572 5571 5571 5571 5570 5570 5571
5589 5588 5587 5586 5586 5586 5585 5585 5584 5584 5584 5583 5583 5582 5581 5580 5579 5578 5577 5576 5576 5575 5575 5574 5573 5572 5571 5571 5570 5568 5566 5565 5564 5563 5563 5564 5564 5565
5583 5582 5581 5580 5580 5580 5579 5578 5577 5577 5577 5576 5576 5575 5574 5573 5571 5571 5570 5570 5569 5568 5567 5567 5566 5565 5564 5563 5562 5561 5559 5558 5558 5557 5556 5556 5556 5556